Wind_Speed
8 9 7 2 2 2 4 3 5 6 4 8 13 14 14 16 6 6 13 10 6 2 3 6 6 6 5 4 4 3 4 4 4 5 5 5 6 7 8 8 8 7 7 6 6 5 6 6 8
11 7 5 4 1 4 2 7 7 6 14 13 10 8 13 7 14 14 9 12 6 1 4 5 6 6 6 6 6 6 6 6 7 7 7 8 8 9 9 9 8 8 8 8 7 7 7 8 9
12 11 2 2 4 2 3 8 12 15 11 7 5 15 9 5 7 6 7 12 5 3 3 4 6 5 6 7 8 8 7 7 8 8 9 9 9 10 11 11 10 9 10 10 9 8 9 10 11
8 3 3 1 7 3 5 12 19 12 7 4 15 9 8 5 7 8 12 10 5 2 2 3 5 7 7 8 8 8 9 9 9 9 9 10 10 11 11 11 11 12 13 13 12 12 11 11 12
8 3 2 4 3 0 8 17 18 8 10 7 2 7 8 6 12 13 16 13 6 2 4 3 6 7 8 9 10 10 11 11 11 12 13 13 13 13 13 13 13 13 14 14 14 14 14 14 13
4 3 3 4 6 5 6 11 13 11 11 6 12 12 6 6 9 11 9 8 4 0 3 6 7 8 9 10 11 12 13 14 15 15 16 16 16 15 15 15 15 15 16 16 17 17 17 17 17
4 3 5 6 7 4 5 4 3 11 9 4 8 6 11 11 8 9 6 5 3 2 4 6 8 9 11 11 11 12 13 14 15 16 17 17 17 17 17 17 18 18 18 17 17 18 18 19 19
4 2 2 5 9 5 8 7 3 9 6 7 2 5 8 18 11 8 6 4 3 4 6 8 9 10 10 12 14 13 15 15 16 17 17 16 15 14 16 16 19 18 18 19 20 20 20 20 20
2 2 4 4 8 7 13 4 2 6 8 7 5 8 16 16 11 8 5 3 3 6 6 9 10 11 11 12 14 15 16 16 16 16 16 15 12 14 15 15 17 18 19 20 21 21 21 22 23
1 2 6 7 8 7 13 11 8 4 11 5 6 8 11 11 10 7 2 3 5 6 8 8 10 12 13 13 15 16 15 14 13 12 13 13 12 13 14 13 13 12 14 16 13 13 16 18 15
3 3 4 11 8 11 10 7 5 3 5 7 12 10 9 10 8 7 4 5 9 7 8 10 12 13 14 15 16 14 12 12 11 12 13 12 11 11 11 11 10 12 13 12 14 16 15 13 16
6 7 9 4 6 5 5 6 3 6 3 3 7 10 10 10 10 9 7 5 5 7 9 11 13 14 16 17 16 14 13 11 11 11 11 11 10 10 9 7 9 9 10 13 13 13 14 16 17
7 7 9 9 8 9 4 3 2 4 5 5 6 9 11 10 9 10 12 14 10 7 10 12 13 15 17 17 15 14 12 11 8 9 12 11 11 12 12 11 11 11 13 14 15 15 16 18 19
10 13 11 7 8 6 2 3 1 5 9 7 9 13 13 12 12 12 13 9 9 9 10 12 13 14 16 16 14 13 13 10 9 11 12 11 11 12 12 12 11 11 13 14 14 13 14 16 17
16 7 6 6 3 3 2 3 7 8 9 9 11 11 13 14 14 14 11 8 11 10 10 11 12 14 14 13 12 10 10 11 10 10 9 10 12 13 13 12 13 16 16 15 14 14 15 15 16
3 4 4 3 4 1 2 2 7 11 9 11 14 15 16 17 15 13 14 16 14 10 10 11 12 13 12 11 9 8 8 11 10 11 13 13 13 13 12 12 13 16 16 14 13 13 13 15 17
2 3 4 3 4 3 2 3 4 9 11 14 14 15 15 16 15 15 16 16 12 10 10 11 12 12 11 11 9 8 7 9 11 13 13 12 12 12 12 12 12 13 13 14 14 13 16 18 19
4 3 4 4 2 1 4 12 9 12 14 14 13 15 16 17 18 17 18 15 15 11 9 10 11 12 12 11 8 7 8 11 12 11 11 11 11 12 12 11 11 12 14 14 15 16 15 17 18
3 6 6 3 1 2 6 11 9 15 14 18 17 15 13 16 18 19 18 16 16 13 10 11 11 11 12 11 9 7 9 10 11 11 11 11 12 12 11 11 11 11 12 14 16 18 19 17 21
6 8 4 2 1 1 6 14 14 11 8 6 5 7 6 6 3 18 19 16 14 12 11 9 10 10 11 11 9 8 8 9 11 11 12 12 12 11 12 12 13 13 13 13 15 17 19 18 19
6 5 3 1 3 3 6 7 4 4 10 7 5 3 3 5 7 12 15 13 14 12 10 9 9 9 10 11 11 10 9 8 10 12 12 11 11 12 12 13 13 13 14 14 15 16 17 19 16
4 2 1 3 4 1 1 3 5 5 6 10 9 7 3 2 5 5 10 11 9 9 10 9 9 9 10 11 12 11 10 10 13 13 12 12 12 13 13 14 15 15 15 15 15 15 15 16 18
4 1 3 2 2 3 2 3 4 8 7 7 8 7 5 3 3 5 9 7 8 10 10 10 10 10 10 11 12 12 12 12 12 13 12 13 14 14 14 15 15 16 16 16 15 15 14 14 14
5 2 0 2 1 2 1 2 2 3 4 4 10 10 6 6 1 3 5 8 10 12 12 12 12 12 12 12 12 12 13 13 14 14 14 15 15 15 15 14 16 17 17 16 14 14 13 12 13
4 1 2 3 2 4 3 2 6 4 5 2 5 8 7 4 5 7 9 12 13 15 16 17 18 17 15 13 13 14 15 16 16 17 17 16 16 16 16 16 16 17 17 17 16 15 13 12 12
3 2 3 4 1 3 4 4 4 5 11 10 5 1 5 4 4 7 11 14 17 20 22 23 24 24 21 18 15 16 17 18 19 19 19 18 17 17 16 16 16 17 17 17 16 15 14 12 12
1 1 1 4 2 2 4 5 2 6 7 9 7 5 5 8 9 11 14 18 22 26 28 28 28 28 26 23 19 18 19 21 22 22 22 21 19 18 18 17 17 17 17 17 16 15 14 12 12
2 1 2 2 1 3 4 3 5 6 5 4 5 6 8 11 14 17 20 21 22 22 22 24 28 28 27 26 24 22 22 23 24 24 24 23 21 21 20 18 18 18 18 17 16 15 14 13 12
2 1 2 1 3 3 3 5 2 7 6 2 0 2 7 12 14 17 20 22 26 22 19 19 23 26 27 27 27 26 27 28 27 28 27 26 25 24 23 21 20 18 18 17 17 16 15 13 13
3 3 6 3 3 3 2 6 3 8 11 9 2 3 7 12 14 16 18 22 25 20 19 19 18 21 24 23 23 25 27 29 30 31 30 29 29 27 25 23 22 20 19 18 17 17 15 15 13
Wind_Direction
183 150 99 165 77 202 239 47 91 85 60 69 61 77 96 49 30 117 149 98 90 113 98 65 40 29 15 12 355 340 328 316 307 301 308 317 316 323 324 329 338 343 344 333 321 305 303 312 302
182 125 133 254 198 211 169 116 130 83 100 102 71 89 41 74 83 116 128 96 89 258 70 48 31 19 14 8 357 348 333 322 316 311 307 303 305 308 310 314 317 320 326 324 320 308 302 300 298
164 145 225 187 221 330 107 153 96 96 126 121 102 71 77 85 68 114 141 104 87 314 48 6 0 356 2 1 359 353 342 327 317 311 307 305 306 303 303 304 305 299 304 308 304 304 295 289 292
128 153 256 273 235 13 121 109 114 113 84 59 114 85 88 85 139 139 125 110 126 320 43 341 337 341 337 335 333 329 329 328 325 320 315 312 309 305 301 300 297 292 294 298 299 297 292 288 285
159 217 248 234 56 126 71 113 133 156 138 120 14 111 99 124 146 138 144 150 183 172 329 329 321 320 317 314 312 312 312 310 308 306 307 306 306 304 304 300 294 292 291 291 290 289 289 289 286
214 243 224 215 103 72 63 130 171 114 116 96 104 102 109 174 160 155 163 178 200 277 312 316 320 318 311 307 305 304 304 302 301 298 297 296 296 298 298 297 294 289 288 288 291 291 291 291 290
258 199 222 157 123 123 126 156 171 116 124 108 124 106 140 165 186 167 173 180 196 263 301 317 324 325 320 316 318 317 314 311 306 300 297 294 293 294 291 290 287 284 284 286 286 286 286 287 287
271 304 223 108 146 149 127 176 22 114 93 114 78 156 165 188 186 175 188 206 241 286 309 320 326 328 327 323 320 321 315 310 306 302 301 301 301 291 288 289 286 289 289 288 287 285 286 286 288
284 296 200 85 161 124 149 117 25 80 109 96 62 88 140 180 183 184 196 226 276 299 322 326 329 328 323 318 321 319 315 314 309 307 302 304 294 287 289 292 293 294 294 290 286 286 284 283 283
174 297 26 33 11 132 162 148 148 153 124 123 122 137 167 183 178 184 204 266 275 289 312 325 327 327 324 322 322 322 324 321 326 319 316 312 305 297 295 296 297 307 299 304 308 295 290 292 299
44 51 99 37 22 101 154 98 117 229 161 203 184 187 181 174 177 181 189 223 258 289 305 319 326 326 328 331 331 332 330 332 325 324 323 328 324 318 309 307 292 287 295 293 282 282 288 288 273
102 39 70 77 38 58 106 99 156 265 122 95 121 197 182 184 194 192 193 234 269 297 307 316 325 331 336 335 335 334 332 328 331 329 323 325 323 318 314 311 306 302 294 285 283 278 276 268 265
89 103 83 99 83 57 94 61 11 241 238 231 170 186 192 192 207 217 207 227 253 270 298 315 329 334 334 335 336 333 331 330 333 319 310 321 322 323 324 316 304 299 288 292 297 296 290 287 284
111 107 114 100 95 85 31 132 334 245 193 206 199 194 199 205 213 227 243 238 264 267 295 313 327 330 331 333 336 334 332 328 321 324 336 331 329 329 328 326 322 306 300 302 304 310 309 303 299
125 100 115 47 29 76 88 249 224 158 194 206 220 217 209 215 215 226 254 258 239 267 300 309 318 324 328 328 334 336 331 327 337 333 330 334 332 333 333 326 317 310 311 310 305 303 302 303 303
140 156 123 26 359 51 349 306 199 189 201 220 227 229 224 222 222 230 230 235 248 269 283 303 312 319 326 328 332 332 329 328 336 339 343 342 333 335 333 327 320 320 324 321 316 316 316 314 316
223 168 146 123 30 350 248 283 139 196 215 236 239 233 232 233 235 229 227 245 250 263 278 299 311 318 329 333 334 333 333 316 330 328 331 332 332 339 341 339 338 342 347 346 341 340 334 330 324
182 110 119 129 30 291 256 265 264 227 222 234 246 243 234 234 236 238 238 242 240 261 283 296 311 325 333 334 337 336 328 314 315 317 321 329 338 344 344 343 339 341 339 341 339 343 342 341 336
275 114 125 92 72 342 241 263 265 270 235 226 233 255 257 242 249 230 228 238 255 261 281 295 318 326 330 330 326 315 286 303 301 314 322 328 334 338 339 340 338 338 340 340 340 338 338 344 343
26 102 52 116 226 220 314 285 269 249 247 246 272 250 290 303 230 206 222 235 262 258 277 298 312 324 325 325 321 313 299 297 303 307 314 324 329 335 337 336 333 333 335 332 331 331 334 338 352
37 60 64 32 270 150 294 288 153 54 82 43 37 15 326 300 250 212 224 250 275 251 270 288 306 312 320 321 313 309 304 302 300 308 315 319 324 329 330 330 330 331 330 329 330 328 334 334 344
114 10 54 354 24 213 33 284 38 128 119 64 73 97 49 304 283 203 233 265 255 247 262 282 295 308 316 313 307 304 295 284 284 297 305 311 318 322 327 329 331 332 329 328 330 329 329 328 333
123 231 31 354 347 31 101 71 254 134 86 90 71 73 35 29 103 182 230 243 239 258 271 275 290 302 304 306 303 297 294 292 290 293 300 307 310 317 325 328 328 328 330 330 329 326 322 322 322
137 174 267 246 97 29 315 106 307 27 43 36 51 45 27 3 323 211 229 242 258 271 276 277 280 289 297 297 295 295 291 290 291 292 294 297 306 314 317 322 327 331 331 329 326 324 323 321 320
248 158 360 12 8 221 86 52 244 46 28 59 74 42 22 354 294 282 279 279 284 282 284 278 273 278 284 293 294 293 289 286 285 284 286 292 299 304 312 318 321 324 325 324 323 322 321 320 317
35 13 147 187 224 281 29 232 228 104 67 72 105 44 51 20 352 305 296 293 290 291 289 283 278 274 276 281 292 291 287 284 281 279 282 286 290 296 300 307 314 318 319 319 317 315 314 314 312
122 188 342 103 30 60 219 255 81 114 84 100 110 91 34 11 350 334 321 313 308 303 298 293 286 278 270 272 280 287 289 284 281 278 277 280 283 287 292 299 306 311 314 315 313 311 308 308 308
340 207 73 345 86 278 273 248 215 154 148 102 23 17 4 356 352 343 337 331 326 306 288 289 290 287 281 272 273 282 292 289 283 276 275 277 278 283 287 293 298 303 307 309 309 307 305 305 304
150 218 247 26 148 181 320 273 43 144 175 130 285 349 345 341 343 337 341 338 335 328 319 287 284 284 282 272 272 278 288 290 285 281 276 272 273 276 280 283 288 293 298 302 304 302 299 299 298
330 278 181 135 210 231 142 276 101 146 180 206 107 20 5 339 339 344 341 340 340 336 331 323 320 289 284 283 276 276 285 287 285 283 281 277 273 272 274 276 280 286 292 298 299 296 292 292 292
Height
1515 1515 1517 1519 1529 1523 1520 1515 1505 1515 1516 1521 1521 1521 1531 1535 1538 1552 1551 1552 1552 1550 1550 1550 1550 1550 1550 1550 1550 1550 1550 1550 1549 1549 1549 1549 1548 1548 1547 1547 1547 1546 1546 1545 1545 1545 1544 1544 1543
1514 1516 1518 1518 1529 1530 1519 1509 1515 1517 1519 1523 1525 1527 1530 1542 1542 1545 1550 1551 1551 1549 1550 1550 1550 1551 1551 1550 1550 1550 1550 1550 1549 1549 1549 1549 1548 1548 1547 1547 1546 1546 1546 1545 1544 1544 1544 1543 1542
1515 1515 1518 1519 1519 1524 1522 1509 1516 1520 1523 1525 1528 1530 1535 1543 1545 1546 1549 1551 1551 1548 1550 1550 1550 1551 1551 1550 1550 1550 1550 1549 1549 1549 1548 1548 1548 1547 1546 1546 1545 1545 1544 1544 1543 1543 1542 1541 1541
1515 1517 1519 1522 1519 1512 1509 1511 1516 1522 1525 1525 1527 1535 1540 1542 1544 1547 1549 1551 1550 1548 1549 1550 1550 1550 1550 1550 1550 1549 1549 1549 1548 1548 1548 1547 1547 1546 1545 1544 1544 1543 1543 1542 1542 1541 1540 1540 1539
1515 1515 1520 1519 1516 1511 1509 1513 1519 1522 1524 1527 1528 1535 1541 1543 1544 1546 1547 1548 1548 1548 1548 1549 1549 1549 1549 1549 1548 1548 1547 1547 1547 1546 1546 1546 1545 1544 1544 1543 1542 1542 1541 1540 1539 1539 1538 1538 1537
1515 1512 1520 1523 1517 1513 1515 1517 1519 1521 1525 1528 1531 1535 1543 1543 1543 1545 1546 1547 1547 1548 1548 1548 1548 1548 1547 1547 1547 1546 1546 1545 1544 1544 1543 1543 1542 1542 1541 1541 1540 1539 1539 1538 1537 1537 1536 1536 1535
1513 1512 1511 1509 1519 1519 1519 1521 1520 1523 1526 1530 1531 1534 1542 1544 1543 1544 1546 1547 1547 1548 1548 1547 1547 1546 1545 1545 1545 1544 1544 1543 1542 1541 1540 1539 1539 1539 1538 1538 1536 1536 1536 1535 1535 1534 1533 1533 1532
1511 1507 1502 1504 1519 1522 1520 1522 1523 1524 1529 1531 1532 1534 1540 1540 1542 1544 1545 1546 1546 1547 1547 1546 1546 1545 1544 1544 1543 1542 1541 1540 1539 1537 1536 1536 1536 1535 1534 1533 1532 1533 1532 1532 1531 1531 1530 1530 1529
1511 1514 1511 1505 1513 1519 1521 1524 1525 1528 1530 1532 1535 1535 1536 1539 1541 1543 1544 1545 1545 1545 1545 1545 1545 1544 1543 1542 1541 1540 1539 1537 1536 1534 1533 1533 1532 1531 1531 1531 1531 1530 1529 1528 1527 1527 1526 1526 1525
1510 1511 1514 1512 1513 1516 1521 1523 1527 1529 1531 1534 1536 1537 1538 1540 1541 1543 1544 1544 1544 1543 1543 1544 1543 1543 1542 1540 1539 1538 1536 1535 1534 1532 1531 1529 1529 1528 1528 1527 1527 1526 1525 1524 1523 1522 1522 1521 1522
1509 1515 1514 1518 1517 1517 1522 1524 1526 1528 1531 1532 1533 1535 1538 1539 1541 1543 1545 1545 1543 1542 1542 1542 1542 1541 1540 1539 1537 1535 1534 1533 1532 1530 1529 1528 1527 1526 1525 1525 1524 1523 1523 1521 1520 1519 1518 1518 1518
1514 1517 1516 1521 1520 1521 1525 1525 1527 1528 1531 1531 1532 1533 1536 1539 1541 1543 1545 1543 1542 1541 1541 1540 1540 1539 1537 1536 1534 1533 1532 1531 1530 1529 1527 1526 1524 1523 1522 1521 1521 1520 1519 1518 1516 1514 1513 1512 1512
1514 1518 1521 1523 1524 1525 1526 1528 1528 1528 1529 1531 1533 1534 1536 1538 1540 1541 1542 1541 1541 1540 1539 1539 1538 1537 1536 1534 1532 1531 1530 1529 1528 1526 1525 1524 1523 1521 1520 1519 1518 1517 1515 1514 1513 1512 1511 1509 1508
1515 1519 1523 1525 1526 1527 1528 1528 1529 1525 1528 1530 1532 1533 1535 1537 1538 1538 1539 1540 1540 1539 1538 1537 1536 1535 1534 1532 1530 1529 1528 1527 1526 1525 1525 1523 1521 1520 1518 1517 1516 1514 1512 1511 1509 1508 1506 1505 1504
1518 1523 1525 1527 1527 1529 1528 1529 1527 1525 1526 1528 1530 1531 1533 1534 1536 1536 1536 1537 1538 1537 1537 1536 1535 1534 1533 1531 1529 1528 1527 1526 1525 1524 1523 1522 1520 1518 1517 1515 1513 1511 1509 1508 1506 1505 1503 1501 1500
1518 1520 1529 1530 1528 1530 1529 1527 1519 1523 1525 1526 1527 1528 1530 1531 1533 1535 1535 1535 1536 1536 1535 1535 1534 1532 1531 1529 1528 1527 1526 1524 1524 1523 1521 1520 1518 1516 1514 1512 1510 1508 1507 1505 1504 1502 1500 1499 1497
1520 1528 1522 1532 1531 1531 1531 1526 1522 1523 1523 1524 1525 1526 1527 1528 1531 1532 1533 1533 1534 1534 1534 1533 1532 1530 1529 1528 1527 1526 1525 1524 1523 1521 1520 1519 1517 1515 1514 1511 1510 1508 1506 1504 1502 1501 1498 1496 1493
1524 1520 1520 1527 1535 1531 1532 1529 1522 1521 1520 1521 1523 1523 1524 1525 1526 1528 1529 1531 1531 1531 1532 1531 1530 1529 1528 1526 1525 1525 1524 1523 1522 1521 1519 1517 1516 1514 1513 1511 1509 1507 1505 1503 1501 1499 1497 1494 1490
1511 1515 1524 1531 1533 1534 1530 1527 1518 1517 1518 1519 1520 1521 1522 1522 1521 1522 1524 1526 1528 1529 1528 1528 1528 1527 1526 1524 1523 1523 1522 1521 1520 1519 1518 1516 1515 1514 1512 1510 1508 1506 1504 1501 1499 1497 1494 1492 1488
1516 1523 1532 1533 1533 1533 1529 1524 1514 1513 1514 1515 1516 1518 1520 1520 1521 1520 1521 1522 1525 1526 1525 1526 1525 1525 1524 1523 1522 1521 1520 1520 1519 1518 1516 1516 1514 1513 1511 1509 1507 1505 1503 1500 1498 1495 1493 1490 1488
1533 1532 1535 1538 1532 1532 1533 1524 1509 1511 1513 1515 1516 1518 1520 1521 1521 1521 1520 1521 1522 1523 1524 1524 1524 1523 1522 1521 1521 1520 1519 1518 1517 1516 1516 1514 1513 1511 1509 1507 1505 1503 1501 1499 1497 1494 1491 1487 1486
1533 1535 1535 1535 1540 1550 1529 1556 1511 1514 1517 1517 1518 1520 1521 1521 1520 1521 1520 1520 1520 1521 1522 1523 1522 1521 1520 1520 1519 1518 1517 1516 1515 1515 1514 1513 1511 1509 1508 1506 1504 1502 1500 1497 1495 1492 1490 1487 1485
1538 1536 1537 1536 1537 1542 1535 1556 1519 1514 1520 1521 1520 1521 1521 1520 1520 1521 1521 1520 1520 1520 1521 1521 1520 1519 1519 1518 1517 1516 1515 1514 1513 1512 1511 1510 1508 1507 1506 1505 1503 1500 1498 1495 1493 1490 1488 1485 1482
1537 1536 1537 1538 1540 1563 1550 1553 1530 1524 1522 1520 1520 1520 1520 1519 1520 1521 1521 1520 1520 1519 1519 1519 1518 1518 1517 1516 1514 1513 1512 1512 1511 1510 1510 1508 1507 1506 1504 1502 1500 1498 1496 1493 1491 1488 1486 1483 1481
1537 1540 1558 1556 1556 1557 1547 1559 1537 1522 1520 1519 1520 1521 1521 1521 1521 1521 1520 1519 1518 1517 1516 1516 1515 1515 1514 1512 1511 1510 1509 1508 1508 1507 1506 1505 1504 1502 1501 1500 1498 1495 1493 1490 1488 1486 1483 1481 1478
1535 1537 1556 1554 1560 1558 1555 1562 1534 1520 1518 1518 1520 1521 1522 1522 1521 1520 1519 1518 1517 1515 1514 1513 1511 1510 1509 1508 1507 1506 1505 1504 1504 1503 1502 1501 1500 1499 1498 1496 1495 1493 1491 1488 1486 1483 1480 1478 1476
1536 1544 1539 1550 1558 1570 1547 1529 1518 1518 1520 1521 1522 1523 1523 1521 1520 1519 1518 1516 1514 1511 1509 1508 1506 1505 1505 1504 1504 1503 1502 1500 1499 1499 1498 1497 1496 1495 1494 1493 1492 1490 1488 1485 1482 1480 1477 1475 1474
1539 1539 1548 1554 1561 1550 1545 1523 1535 1524 1524 1522 1523 1523 1521 1520 1519 1517 1516 1513 1510 1507 1505 1504 1501 1500 1500 1500 1500 1499 1498 1496 1495 1495 1493 1493 1492 1491 1490 1489 1488 1486 1484 1481 1479 1477 1475 1473 1471
1542 1541 1540 1540 1543 1559 1549 1544 1513 1521 1523 1523 1521 1521 1520 1519 1518 1516 1513 1510 1507 1503 1501 1499 1498 1496 1495 1495 1495 1495 1493 1491 1490 1488 1487 1486 1485 1485 1485 1484 1483 1481 1479 1477 1475 1472 1470 1469 1468
1534 1531 1533 1546 1543 1546 1549 1552 1515 1518 1519 1519 1518 1518 1519 1518 1516 1514 1511 1508 1505 1501 1498 1496 1494 1492 1491 1491 1491 1490 1489 1487 1485 1484 1483 1483 1482 1481 1480 1479 1478 1477 1475 1473 1471 1469 1467 1466 1464